Provincetown, Massachusetts, United States (02657)
Lat: 42.06N, Lon: 70.18W
Wx Zone: MAZ022
Local Info
Past Weather Observations for Today

NOTE: This archive is for the closest National Weather Service station to Provincetown. Information may differ from the station used for current weather conditions.

Click here for Long-term Archive

Time Weather Temperature Dewpoint Humidity Pressure Winds Precip Visibility
11:45
Overcast
34°F / 1°C 27°F / -3°C 75% 30.01 in
(1016 mb)
NNW 16.1 mph
(NNW 26 kph)
- 10SM
11:15
Overcast
34°F / 1°C 28°F / -2°C 81% 29.98 in
(1015 mb)
NNW 16.1 mph
(NNW 26 kph)
- 10SM
11:03
Overcast
34°F / 1°C 30°F / -1°C 87% 29.98 in
(1015 mb)
NNW 15 mph
(NNW 24 kph)
- 10SM
10:56
Overcast
34°F / 1°C 30°F / -1°C 87% 29.98 in
(1015 mb)
NNW 17.3 mph
(NNW 28 kph)
0.00 in
(0.00 mm)
10SM
10:20
Overcast
Light Snow
34°F / 1°C 30°F / -1°C 87% 29.98 in
(1015 mb)
NNW 17.3 mph
(NNW 28 kph)
0.00 in
(0.00 mm)
3SM
10:11
Overcast
Light Snow
34°F / 1°C 30°F / -1°C 87% 29.98 in
(1015 mb)
NNW 17.3 mph
(NNW 28 kph)
0.00 in
(0.00 mm)
2 1/2SM
09:56
Overcast
Light Snow
34°F / 1°C 30°F / -1°C 87% 29.98 in
(1015 mb)
NW 13.8 mph
(NW 22 kph)
0.00 in
(0.00 mm)
1 1/2SM
09:27
Overcast
Light Snow
34°F / 1°C 30°F / -1°C 87% 29.98 in
(1015 mb)
NW 16.1 mph
(NW 26 kph)
0.00 in
(0.00 mm)
1 1/2SM
08:56
Overcast
Light Snow
34°F / 1°C 30°F / -1°C 87% 29.98 in
(1015 mb)
NW 15 mph
(NW 24 kph)
0.00 in
(0.00 mm)
4SM
08:54
Overcast
Light Snow
34°F / 1°C 30°F / -1°C 87% 29.98 in
(1015 mb)
NW 13.8 mph
(NW 22 kph)
0.00 in
(0.00 mm)
3SM
08:21
Overcast
Light Snow
34°F / 1°C 30°F / -1°C 87% 29.98 in
(1015 mb)
NW 12.7 mph
(NW 20 kph)
0.00 in
(0.00 mm)
2SM
07:56
Overcast
Fog And Mist
34°F / 1°C 32°F / 0°C 93% 29.95 in
(1014 mb)
NNW 13.8 mph
(NNW 22 kph)
0.00 in
(0.00 mm)
6SM
07:32
Overcast
Unknown Precip
34°F / 1°C 32°F / 0°C 93% 29.95 in
(1014 mb)
NW 16.1 mph
(NW 26 kph)
0.00 in
(0.00 mm)
4SM
07:18
Overcast
Unknown Precip
34°F / 1°C 32°F / 0°C 93% 29.95 in
(1014 mb)
NW 16.1 mph
(NW 26 kph)
0.00 in
(0.00 mm)
2SM
06:56
Overcast
Light Rain
36°F / 2°C 34°F / 1°C 93% 29.95 in
(1014 mb)
NW 13.8 mph
(NW 22 kph)
0.00 in
(0.00 mm)
3SM
05:56
Overcast
36°F / 2°C 34°F / 1°C 93% 29.92 in
(1013 mb)
NW 11.5 mph
(NW 19 kph)
- 10SM
04:56
Overcast
34°F / 1°C 32°F / 0°C 93% 29.92 in
(1013 mb)
NW 11.5 mph
(NW 19 kph)
- 10SM
03:56
Overcast
36°F / 2°C 34°F / 1°C 93% 29.92 in
(1013 mb)
NW 5.8 mph
(NW 9 kph)
0.00 in
(0.00 mm)
10SM
02:56
Overcast
Light Rain
34°F / 1°C 34°F / 1°C 100% 29.92 in
(1013 mb)
NNW 9.2 mph
(NNW 15 kph)
0.02 in
(0.51 mm)
10SM
01:56
Overcast
Light Snow
34°F / 1°C 34°F / 1°C 100% 29.95 in
(1014 mb)
NW 9.2 mph
(NW 15 kph)
0.04 in
(1.02 mm)
4SM
01:47
Overcast
Light Snow
34°F / 1°C 32°F / 0°C 93% 29.95 in
(1014 mb)
NW 4.6 mph
(NW 7 kph)
0.04 in
(1.02 mm)
2 1/2SM
01:37
Overcast
Light Snow
34°F / 1°C 32°F / 0°C 93% 29.95 in
(1014 mb)
NW 4.6 mph
(NW 7 kph)
0.03 in
(0.76 mm)
1 3/4SM
01:28
Overcast
Light Snow
34°F / 1°C 32°F / 0°C 93% 29.95 in
(1014 mb)
NW 6.9 mph
(NW 11 kph)
0.02 in
(0.51 mm)
2SM
01:12
Overcast
Light Snow
34°F / 1°C 32°F / 0°C 93% 29.95 in
(1014 mb)
NW 4.6 mph
(NW 7 kph)
0.01 in
(0.25 mm)
3SM
00:56
Overcast
Light Snow
34°F / 1°C 32°F / 0°C 93% 29.95 in
(1014 mb)
NNW 5.8 mph
(NNW 9 kph)
0.07 in
(1.78 mm)
2SM
Time Weather Temperature Dewpoint Humidity Pressure Winds Precip Visibility


Weather for websites

WeatherForYou.com, LLC is not responsible for any damages or problems caused by this service. Current weather conditions are obtained from the closest station including government and personal stations which may have varying degrees of accuracy. Weather forecasts are derived from the NOAA NDFD. Like all things, this site belongs to Jesus Christ... He just trusts me to maintain it. If you have any questions or comments email webmaster@weatherforyou.com

Copyright © 2014, WeatherForYou.com LLC. All rights reserved.